Regional Weather Roundup
Issued by NWS Northern Indiana

Home | Current Version | Previous Version | Text Only | Print | Product List | Glossary On
Versions: 1 2 3 4 5 6 7 8 9 10 11 12 13 14 15 16 17 18 19 20 21 22 23 24 25 26 27 28 29 30 31 32 33 34 35 36 37 38 39 40 41 42 43 44 45 46 47 48 49 50
000
ASUS43 KIWX 181010
RWRIWX

KIWX WEATHER ROUNDUP
NATIONAL WEATHER SERVICE NORTHERN INDIANA
600 AM EDT THU SEP 18 2014

NOTE: "FAIR" INDICATES FEW OR NO CLOUDS BELOW 12,000 FEET WITH NO
SIGNIFICANT WEATHER AND/OR OBSTRUCTIONS TO VISIBILITY.

* THESE STATIONS ARE NOT UNDER NWS QUALITY CONTROL. THEY ALSO MAY NOT
  REPORT WEATHER SUCH AS PRECIPITATION OR FOG.

INZ001>027-181100-
NORTHERN INDIANA

CITY           SKY/WX    TMP DP  RH WIND       PRES   REMARKS
GARY*          CLEAR     46  45  93 CALM      30.07R FOG
VALPARAISO     CLEAR     46  43  89 CALM      30.07R
MICHIGAN CITY* CLEAR     43  43 100 CALM      30.07S
LAPORTE*       CLEAR     44  44 100 CALM      30.08R
KNOX*          CLEAR     42  41  94 CALM      30.07R
SOUTH BEND     CLEAR     44  41  89 CALM      30.08R
GOSHEN         CLEAR     42  40  92 CALM      30.07R
MONTICELLO*    CLEAR     46  46 100 CALM      30.05R
LOGANSPORT*    CLEAR     45  43  93 CALM      30.06S
ROCHESTER*     CLEAR     45  45 100 CALM      30.07R FOG
WARSAW*        CLEAR     41  41 100 CALM      30.07R FOG
ANGOLA*        CLEAR     45  43  93 N3        30.07R
FORT WAYNE     CLEAR     44  43  96 N3        30.06S FOG
HUNTINGTON*    CLEAR     42  42  99 N3        30.05S FOG
PERU/GRISSOM   CLEAR     46  46 100 CALM      30.05R
MARION*        CLEAR     43  42  98 CALM      30.06R FOG

$$
INZ028>050-181100-
CENTRAL INDIANA

CITY           SKY/WX    TMP DP  RH WIND       PRES   REMARKS
LAFAYETTE      CLEAR     46  46 100 CALM      30.04S
KOKOMO*        CLEAR     45  41  87 CALM      30.06R
MUNCIE*        FOG       44  43  96 CALM      30.04S VSB 1
INDIANAPOLIS   CLEAR     51  48  89 N3        30.03R

$$
MIZ043>046-050>051-056>058-064>065-071>073-077>080-181100-
SOUTHWEST LOWER MICHIGAN

CITY           SKY/WX    TMP DP  RH WIND       PRES   REMARKS
BATTLE CREEK   CLEAR     45  41  86 CALM      30.08R
BENTON HARBOR  CLEAR     40  40 100 CALM      30.07S
COLDWATER*     FOG       43  42  97 MISG      30.08R VSB 1/4
HILLSDALE*     CLEAR     42  42 100 CALM      30.07R
HOLLAND        PTCLDY    47  44  90 E3        30.09R
GRAND RAPIDS   PTCLDY    44  41  89 CALM      30.09R
KALAMAZOO      CLEAR     43  40  89 N3        30.09R
STURGIS*       CLEAR     45  45 100 CALM      30.07R FOG
THREE RIVERS*  FAIR      42  40  93 CALM      30.08R

$$
OHZ001>008-015>018-024>025-181100-
NORTHWEST OHIO

CITY           SKY/WX    TMP DP  RH WIND       PRES   REMARKS
WAUSEON*       FAIR      45  43  93 CALM      30.06R
DEFIANCE       CLEAR     45  41  86 CALM      30.06R
FINDLAY        CLEAR     49  45  86 NW3       30.04R
TOLEDO EXPRESS CLEAR     44  42  93 CALM      30.06R
TOLEDO METCALF CLEAR     49  44  83 CALM      30.06R
LIMA           CLEAR     46  44  93 CALM      30.05R FOG

$$
&&


USA.gov is the U.S. government's official web portal to all federal, state and local government web resources and services.